weather.gov     
National Weather Service

Regional Weather Roundup
NWS Homepage
This page is being discontinued on March 12, 2014.
The same data is available at this site. Please update your bookmarks.
Thank you, and we apologize for the inconvenience.
Please send an email to SR-SRH.Webmaster@noaa.gov with any concerns.


Current Version
Previous Version:    01  02  03  04  05  06  07  08  09  10  11  12  13  14  15  16  17  18  19  20  21  22  23  24  25  26  27  28  29  30  
   31  32  33  34  35  36  37  38  39  40  41  42  43  44  45  46  47  48  49  50  51  52  53  
[Printable]
922
ASUS44 KMEG 231010
RWRMEG
MEMPHIS CWA HOURLY WEATHER ROUNDUP
NATIONAL WEATHER SERVICE MEMPHIS TN
500 AM CDT THU OCT 23 2014

...WEST TENNESSEE...

CITY           SKY/WX    TMP DP  RH WIND       PRES   REMARKS
MEMPHIS INTL   PTCLDY    48  42  80 E3        30.18R
NWS MEMPHIS      N/A     44 N/A N/A MISG        N/A
JACKSON        PTCLDY    37  36  93 CALM      30.19S FOG
LEXINGTON      CLEAR     37  37 100 CALM      30.18S
SAVANNAH       CLEAR     34  34 100 CALM      30.18S
DYERSBURG      CLEAR     43  32  65 E3        30.21R
UNION CITY     CLEAR     36  36 100 CALM      30.19S
PARIS          CLEAR     43  39  87 E7        30.20F


...EASTERN ARKANSAS...

CITY           SKY/WX    TMP DP  RH WIND       PRES   REMARKS
JONESBORO      CLEAR     46  43  89 N3        30.20R
WEST MEMPHIS   PTCLDY    43  43 100 CALM      30.18R
BATESVILLE     PTCLDY    43  39  87 CALM      30.20R
NEWPORT        PTCLDY    42  42 100 N6        30.21R
WALNUT RIDGE   PTCLDY    43  37  81 NW6       30.20R
BLYTHEVILLE    CLEAR     42  40  92 E5        30.19S
SEARCY         PTCLDY    43  42  97 CALM      30.20S
STUTTGART      FAIR      46  43  87 CALM      30.18R
PINE BLUFF     CLOUDY    48  44  86 NW3       30.17R
MONTICELLO     CLOUDY    47  44  90 CALM      30.16R


...NORTH MISSISSIPPI...

CITY           SKY/WX    TMP DP  RH WIND       PRES   REMARKS
TUPELO         CLEAR     42  39  89 NE6       30.16S
OXFORD         CLEAR     39  37  93 CALM      30.18R
OLIVE BRANCH   CLEAR     43  43 100 E3        30.18R
TUNICA         PTCLDY    41  39  93 CALM      30.18S
CLARKSDALE     PTCLDY    41  41 100 N5        30.18R
CORINTH        CLEAR     37  37 100 CALM      30.17S FOG
GRENADA          N/A    N/A N/A N/A MISG        N/A
GREENWOOD      CLEAR     42  41  96 CALM      30.15R
COLUMBUS       CLEAR     43  42  97 N2        30.15S
STARKVILLE     FAIR      45  43  93 NE3       30.14R
GOLDEN TRIANGL CLEAR     43  37  81 NE6       30.13S


...SOUTHEAST MISSOURI...

CITY           SKY/WX    TMP DP  RH WIND       PRES   REMARKS
WEST PLAINS    PTCLDY    37  35  92 CALM      30.20S
POPLAR BLUFF   PTCLDY    38  35  89 CALM      30.20R
CAPE GIRARDEAU PTCLDY    36  36 100 E3        30.21S FOG


...NORTHWEST ALABAMA...

CITY           SKY/WX    TMP DP  RH WIND       PRES   REMARKS
MUSCLE SHOALS  CLEAR     42  38  85 CALM      30.19S


...MIDDLE TENNESSEE...

CITY           SKY/WX    TMP DP  RH WIND       PRES   REMARKS
NASHVILLE      CLEAR     42  40  92 W3        30.24R
CLARKSVILLE    FOG       36  35  96 CALM      30.24R VSB 1/4
COLUMBIA       CLEAR    N/A N/A N/A CALM      30.19S


...WESTERN KENTUCKY...

CITY           SKY/WX    TMP DP  RH WIND       PRES   REMARKS
PADUCAH        CLEAR     36  35  96 CALM      30.21S
FORT CAMPBELL  CLEAR     38  38 100 CALM      30.23S


...CENTRAL ARKANSAS...

CITY           SKY/WX    TMP DP  RH WIND       PRES   REMARKS
LITTLE ROCK    MOCLDY    50  42  74 CALM      30.19R


SKY/WX REPORTED AS FAIR MEANS FEW OR NO CLOUDS BELOW
12 THOUSAND FEET.





U.S. Dept. of Commerce
NOAA National Weather Service
1325 East West Highway
Silver Spring, MD 20910
E-mail: w-nws.webmaster@noaa.gov
Page last modified: May 16, 2007
NATIONAL WEATHER SERVICE: for Safety, for Work, for Fun - FOR LIFE